Tracking 31027 objects as of 19-Jul-2025
HD Live streaming from Space Station
objects crossing your sky now

O3B FM16

Track O3B FM16 now!
10-day predictions
O3B FM16 is classified as:


NORAD ID: 43232
Int'l Code: 2018-024B
Perigee: 8,068.6 km
Apogee: 8,077.4 km
Inclination: 0.1 °
Period: 287.9 minutes
Semi major axis: 14444 km
RCS: Unknown
Launch date: March 9, 2018
Source: O3b Networks (O3B)
Launch site: FRENCH GUIANA (FRGUI)
Your satellite tracking list
SES-6
Track 1 satellite(s)




NASA's NSSDC Master Catalog

Two Line Element Set (TLE):
1 43232U 18024B   25199.32806493 -.00000013  00000-0  00000-0 0  9995
2 43232   0.0521 348.3553 0003034 127.5381 244.1371  5.00115625134232
Source of the keplerian elements: AFSPC